Time,TemperatureF,DewpointF,PressureIn,WindDirection,WindDirectionDegrees,WindSpeedMPH,WindSpeedGustMPH,Humidity,HourlyPrecipIn,Conditions,Clouds,dailyrainin,SoftwareType,DateUTC
2013-09-03 17:42:00,73.0,52.0,-100.00,SW,220,6.0,10.0,47,0.00,,,-99.99,,2013-09-04 00:42:00,
2013-09-03 17:52:00,73.0,54.0,-100.00,SE,131,6.0,12.0,51,0.00,,,-99.99,,2013-09-04 00:52:00,
2013-09-03 18:11:00,73.0,52.0,-100.00,South,184,9.0,14.0,48,0.00,,,-99.99,,2013-09-04 01:11:00,
2013-09-03 18:21:00,73.0,52.0,-100.00,South,184,9.0,14.0,48,0.00,,,-99.99,,2013-09-04 01:21:00,
2013-09-03 18:42:00,73.0,52.0,-100.00,South,188,7.0,11.0,48,0.00,,,-99.99,,2013-09-04 01:42:00,
2013-09-03 18:52:00,73.0,52.0,-100.00,South,179,6.0,11.0,47,0.00,,,-99.99,,2013-09-04 01:52:00,
2013-09-03 19:11:00,70.0,55.0,-100.00,South,186,5.0,8.0,58,0.00,,,-99.99,,2013-09-04 02:11:00,
2013-09-03 19:22:00,70.0,55.0,-100.00,South,186,5.0,8.0,58,0.00,,,-99.99,,2013-09-04 02:22:00,
2013-09-03 19:42:00,69.0,55.0,-100.00,SSE,157,3.0,5.0,62,0.00,,,-99.99,,2013-09-04 02:42:00,
2013-09-03 19:52:00,69.0,55.0,-100.00,SSE,157,3.0,5.0,62,0.00,,,-99.99,,2013-09-04 02:52:00,
2013-09-03 20:22:00,65.0,57.0,-100.00,North,-999,-999.0,-999.0,75,0.00,,,-99.99,,2013-09-04 03:22:00,
2013-09-03 20:44:00,65.0,57.0,-100.00,East,82,6.0,7.0,75,0.00,,,-99.99,,2013-09-04 03:44:00,
2013-09-03 20:54:00,64.0,54.0,-100.00,North,6,0.0,4.0,71,0.00,,,-99.99,,2013-09-04 03:54:00,
2013-09-03 21:04:00,64.0,54.0,-100.00,North,6,0.0,4.0,71,0.00,,,-99.99,,2013-09-04 04:04:00,
2013-09-03 21:14:00,64.0,54.0,-100.00,North,6,0.0,4.0,71,0.00,,,-99.99,,2013-09-04 04:14:00,
2013-09-03 21:44:00,60.0,56.0,-100.00,ESE,112,6.0,8.0,87,0.00,,,-99.99,,2013-09-04 04:44:00,
2013-09-03 21:54:00,59.0,55.0,-100.00,North,-999,0.0,0.0,87,0.00,,,-99.99,,2013-09-04 04:54:00,
2013-09-03 22:03:00,59.0,55.0,-100.00,North,-999,0.0,0.0,87,0.00,,,-99.99,,2013-09-04 05:03:00,
2013-09-03 22:43:00,60.0,55.0,-100.00,ESE,112,2.0,4.0,83,0.00,,,-99.99,,2013-09-04 05:43:00,
2013-09-03 22:52:00,57.0,55.0,-100.00,NNW,330,9.0,13.0,94,0.00,,,-99.99,,2013-09-04 05:52:00,
2013-09-03 23:12:00,60.0,55.0,-100.00,NNW,328,7.0,12.0,84,0.00,,,-99.99,,2013-09-04 06:12:00,
2013-09-03 23:22:00,60.0,55.0,-100.00,NNW,328,7.0,12.0,84,0.00,,,-99.99,,2013-09-04 06:22:00,
2013-09-03 23:42:00,59.0,54.0,-100.00,NNW,347,8.0,13.0,83,0.00,,,-99.99,,2013-09-04 06:42:00,
2013-09-03 23:52:00,59.0,52.0,-100.00,NW,326,12.0,19.0,79,0.00,,,-99.99,,2013-09-04 06:52:00,